Time,TemperatureF,DewpointF,PressureIn,WindDirection,WindDirectionDegrees,WindSpeedMPH,WindSpeedGustMPH,Humidity,HourlyPrecipIn,Conditions,Clouds,dailyrainin,SoftwareType,DateUTC
2013-03-17 00:53:00,70.0,-99.9,30.14,ESE,120,11.0,15.0,-999,-99.99,,,-99.99,,2013-03-17 04:53:00,
2013-03-17 01:52:00,70.0,-99.9,30.13,ESE,110,8.0,11.0,-999,-99.99,,,-99.99,,2013-03-17 05:52:00,
2013-03-17 02:53:00,70.0,-99.9,30.11,ESE,110,8.0,9.0,-999,-99.99,,,-99.99,,2013-03-17 06:53:00,
2013-03-17 03:52:00,70.0,-99.9,30.10,SE,130,7.0,8.0,-999,-99.99,,,-99.99,,2013-03-17 07:52:00,
2013-03-17 04:52:00,69.0,-99.9,30.08,SE,130,8.0,9.0,-999,-99.99,,,-99.99,,2013-03-17 08:52:00,
2013-03-17 05:53:00,69.0,-99.9,30.07,ESE,120,6.0,7.0,-999,-99.99,,,-99.99,,2013-03-17 09:53:00,
2013-03-17 06:53:00,69.0,-99.9,30.07,East,100,6.0,7.0,-999,-99.99,,,-99.99,,2013-03-17 10:53:00,
2013-03-17 07:52:00,69.0,-99.9,30.09,ESE,110,6.0,7.0,-999,-99.99,,,-99.99,,2013-03-17 11:52:00,
2013-03-17 08:52:00,69.0,-99.9,30.10,East,100,5.0,6.0,-999,-99.99,,,-99.99,,2013-03-17 12:52:00,
2013-03-17 09:53:00,68.0,-99.9,30.13,ENE,70,6.0,6.0,-999,-99.99,,,-99.99,,2013-03-17 13:53:00,
2013-03-17 10:53:00,70.0,-99.9,30.14,ESE,120,9.0,11.0,-999,-99.99,,,-99.99,,2013-03-17 14:53:00,
2013-03-17 11:53:00,71.0,-99.9,30.14,SE,130,10.0,11.0,-999,-99.99,,,-99.99,,2013-03-17 15:53:00,
2013-03-17 12:53:00,71.0,-99.9,30.14,ESE,110,9.0,11.0,-999,-99.99,,,-99.99,,2013-03-17 16:53:00,
2013-03-17 13:53:00,72.0,-99.9,30.13,ESE,110,7.0,10.0,-999,-99.99,,,-99.99,,2013-03-17 17:53:00,
2013-03-17 14:52:00,72.0,-99.9,30.11,ESE,120,10.0,13.0,-999,-99.99,,,-99.99,,2013-03-17 18:52:00,
2013-03-17 15:53:00,72.0,-99.9,30.07,ESE,110,10.0,13.0,-999,-99.99,,,-99.99,,2013-03-17 19:53:00,
2013-03-17 16:52:00,72.0,-99.9,30.05,SE,130,10.0,14.0,-999,-99.99,,,-99.99,,2013-03-17 20:52:00,
2013-03-17 17:53:00,73.0,-99.9,30.05,ESE,110,8.0,9.0,-999,-99.99,,,-99.99,,2013-03-17 21:53:00,
2013-03-17 18:53:00,73.0,-99.9,30.04,ESE,120,8.0,9.0,-999,-99.99,,,-99.99,,2013-03-17 22:53:00,
2013-03-17 19:53:00,72.0,-99.9,30.03,ESE,120,10.0,13.0,-999,-99.99,,,-99.99,,2013-03-17 23:53:00,
2013-03-17 20:53:00,73.0,-99.9,30.03,ESE,120,11.0,15.0,-999,-99.99,,,-99.99,,2013-03-18 00:53:00,
2013-03-17 21:52:00,72.0,-99.9,30.05,ESE,120,10.0,14.0,-999,-99.99,,,-99.99,,2013-03-18 01:52:00,
2013-03-17 22:52:00,72.0,-99.9,30.06,ESE,110,10.0,11.0,-999,-99.99,,,-99.99,,2013-03-18 02:52:00,
2013-03-17 23:53:00,72.0,-99.9,30.09,SE,130,8.0,10.0,-999,-99.99,,,-99.99,,2013-03-18 03:53:00,